This is the latest recevied weather packets stored in our database for station/object KX4O-13. If no packets are shown the sender has not sent any weather packets the latest 10 day(s).
| Time | Temp. | Humidity | Pressure | Rain* | Wind** | Luminosity | Snow |
|---|---|---|---|---|---|---|---|
| 1777819256 | 11.11° C | 44% | 1017.9 hPa | 0 mm | - | 712 W/m² | - |
| 1777818956 | 10.56° C | 46% | 1017.8 hPa | 0 mm | - | 701 W/m² | - |
| 1777818656 | 10.56° C | 47% | 1018 hPa | 0 mm | - | 686 W/m² | - |
| 1777818356 | 10.56° C | 47% | 1017.9 hPa | 0 mm | - | 694 W/m² | - |
| 1777818056 | 10.56° C | 45% | 1018 hPa | 0 mm | - | 680 W/m² | - |
| 1777817756 | 10.56° C | 48% | 1018 hPa | 0 mm | - | 675 W/m² | - |
| 1777817456 | 10° C | 48% | 1018.1 hPa | 0 mm | - | 654 W/m² | - |
| 1777817156 | 10° C | 47% | 1018.1 hPa | 0 mm | - | 629 W/m² | - |
| 1777816856 | 10° C | 51% | 1018.1 hPa | 0 mm | - | 624 W/m² | - |
| 1777816556 | 10° C | 47% | 1018 hPa | 0 mm | - | 624 W/m² | - |
| 1777816256 | 10° C | 49% | 1018.1 hPa | 0 mm | - | 584 W/m² | - |
| 1777815956 | 9.44° C | 47% | 1017.8 hPa | 0 mm | - | 568 W/m² | - |
| 1777815656 | 9.44° C | 51% | 1017.8 hPa | 0 mm | - | 531 W/m² | - |
| 1777815356 | 9.44° C | 52% | 1017.9 hPa | 0 mm | - | 512 W/m² | - |
| 1777815056 | 8.89° C | 50% | 1017.8 hPa | 0 mm | - | 81 W/m² | - |
| 1777814756 | 9.44° C | 52% | 1017.9 hPa | 0 mm | - | 371 W/m² | - |
| 1777814456 | 8.89° C | 54% | 1018 hPa | 0 mm | - | 418 W/m² | - |
| 1777814156 | 8.89° C | 52% | 1018 hPa | 0 mm | - | 396 W/m² | - |
| 1777813856 | 8.89° C | 52% | 1018 hPa | 0 mm | - | 376 W/m² | - |
| 1777813556 | 8.89° C | 54% | 1018.3 hPa | 0 mm | - | 353 W/m² | - |
| 1777813256 | 8.89° C | 54% | 1018.3 hPa | 0 mm | - | 336 W/m² | - |
| 1777812956 | 8.33° C | 56% | 1018.2 hPa | 0 mm | - | 316 W/m² | - |
| 1777812656 | 8.33° C | 56% | 1018.3 hPa | 0 mm | - | 315 W/m² | - |
| 1777812356 | 7.78° C | 57% | 1018.3 hPa | 0 mm | - | 297 W/m² | - |
| 1777812056 | 7.78° C | 58% | 1018.3 hPa | 0 mm | - | 288 W/m² | - |
* Rain latest hour (hover to see other rain measurements)
** Current wind speed in m/s (hover to see current wind gust speed)